P/2007 VQ11 ( Catalina )

Japanese version
Home page
Total 5,708 html files since Dec. 4, 1995
Updated on April 4, 2008

---------------------------------------------------------------------

* Profile

Discovery Date November 3, 2007
Magnitude 18.8 mag
Discoverer Catalina Sky Survey

* Orbital Elements

Epoch 2008 Feb. 24.0 TT = JDT 2454520.5
T 2008 Feb. 13.55683 TT                                 MPC
q   2.6938084            (2000.0)            P               Q
n   0.07833425     Peri.  277.65290     +0.13790407     -0.98870872
a   5.4096387      Node   164.05741     +0.97189635     +0.12368123
e   0.5020354      Incl.   12.32491     +0.19078773     +0.08460513
P  12.58

* Magnitudes Graph

        m1 = 12.5 + 5 log d + 10.0 log r

---------------------------------------------------------------------

The orbital elements are published on M.P.E.C. 2008-C02.
The magnitudes graphs are made with Comet for Windows.

---------------------------------------------------------------------

Copyright(C) 1995-2007 Seiichi Yoshida (comet@aerith.net). All rights reserved.